Regional Weather Roundup
Issued by NWS

Home | Current Version | Previous Version | Text Only | Print | Product List | Glossary On
Versions: 1 2 3 4 5 6 7 8 9 10 11 12 13 14 15 16 17 18 19 20 21 22 23 24 25 26 27 28 29 30 31 32 33 34 35 36 37 38 39 40 41 42 43 44 45 46 47 48 49 50
000
ASUS44 KEWX 100410
RWRTX
SOUTH TEXAS REGIONAL WEATHER ROUNDUP
NATIONAL WEATHER SERVICE AUSTIN/SAN ANTONIO TX
1100 PM CDT WED JUL 09 2014

NOTE: "FAIR" INDICATED FEW OR NO CLOUDS BELOW 12,000 FEET WITH NO
SIGNIFICANT WEATHER AND/OR OBSTRUCTIONS TO VISIBILITY.

* - THESE STATIONS ARE NOT NWS OR FAA STATIONS...AND ARE NOT SUBJECT
    TO NWS AND FAA QUALITY CONTROL.

TXZ171-172-183>190-100500-
TEXAS HILL COUNTRY AND EDWARDS PLATEAU

CITY           SKY/WX    TMP DP  RH WIND       PRES   REMARKS
JUNCTION       CLEAR     82  61  48 S8        30.05R
*LLANO         CLEAR     84  61  45 S6        30.05R
BURNET         CLEAR     83  61  47 S8        30.06R
*HORSESHOE BAY CLEAR     83  62  47 S8        30.02R
*KERRVILLE     CLEAR     79  67  66 S10       30.07R
*FREDERICKSBRG CLEAR     80  63  55 S10       30.06R
*ROCKSPRINGS   CLEAR     81  61  50 SE10      30.10R
*BOERNE STAGE  CLEAR     79  64  61 S12G17    30.07R
*CASTROVILLE   CLEAR     82  67  60 SE8       30.04R
HONDO          CLEAR     81  68  64 SE14      30.04R
*UVALDE        CLEAR     83  65  54 SE9       30.02R
DEL RIO        CLEAR     86  59  39 SE12      29.98R
LAUGHLIN AFB   CLEAR     85  62  45 S8        29.99R
CARRIZO SPRGS  CLEAR     82  63  51 SE9G17    29.99R
$$

TXZ173-191>194-202-209-217>225-228-100500-
CENTRAL AND SOUTH CENTRAL TEXAS

CITY           SKY/WX    TMP DP  RH WIND       PRES   REMARKS
GEORGETOWN     CLEAR     82  63  51 S6        30.02R
AUSTIN/BERGSTM CLEAR     81  68  64 S9        30.01R
AUSTIN/MABRY   CLEAR     84  68  58 S8        30.02R
*AUSTIN/EXEC   CLEAR     82  66  57 S7        30.02R
*LAGO VISTA    CLEAR     83  64  53 S8        30.04R
SAN MARCOS     CLEAR     81  64  57 S10       30.04R
NEW BRAUNFELS  CLEAR     81  68  64 S13       30.02R
RANDOLPH AFB   CLEAR     81  68  64 S10       30.04R
PT SAN ANTONIO CLEAR     81  69  67 SE14      30.02R
SAN ANTONIO    PTCLDY    82  69  64 S13       30.04R
STINSON FIELD  CLEAR     49  32  52 SE8       30.01R WCI  45
*PLEASANTON    CLEAR     79  67  66 SE7       30.03R
*LA GRANGE     CLEAR     81  73  78 S6        30.01R
*GIDDINGS      CLEAR     81  69  66 S6        30.06R
*GONZALES      CLEAR     81  72  76 S9        30.02R
$$

TXZ163>164-176>182-195>201-210>213-226-227-235-100500-
SOUTHEAST TEXAS

CITY           SKY/WX    TMP DP  RH WIND       PRES   REMARKS
COLLEGE STN    CLEAR     82  69  64 S8        30.02R
*BRYAN         CLEAR     82  68  63 S6        30.02R
*CALDWELL      CLEAR     81  70  69 S6        30.05R
*CROCKETT      CLEAR     82  73  74 S5        30.05R
*BRENHAM       CLEAR     81  69  65 S7        30.03R
HUNTSVILLE     CLEAR     81  73  76 S6        30.03R
CONROE         CLEAR     80  72  76 S8        30.03R
HOUSTON BUSH   PTCLDY    82  73  74 S7        30.03R
HOUSTON HOBBY  PTCLDY    80  73  79 S5        30.03R
*HOUSTON SW AP CLEAR     76  74  91 CALM      30.04S
PEARLAND       CLEAR     81  73  76 S3        30.04R
HOUSTON HOOKS  CLEAR     83  74  74 S10       30.03R
ELLINGTON FLD  CLEAR     81  73  78 S3        30.05R
SUGAR LAND     CLEAR     81  74  79 S9        30.03R
*HOUSTON EXEC  CLEAR     77  75  94 S6        30.04R
*CLEVELAND MUN CLEAR     78  74  88 S3        30.04R
*WHARTON       CLEAR     77  74  89 S5        30.04S
$$

TXZ214>216-236>238-100500-
THE UPPER TEXAS COAST

CITY           SKY/WX    TMP DP  RH WIND       PRES   REMARKS
*ORANGE        CLEAR     80  73  78 S6        30.04S
PORT ARTHUR    CLEAR     78  74  87 S6        30.03R
GALVESTON      CLEAR     83  74  74 S10       30.05R
ANGLETON       CLEAR     76  73  91 S6        30.04R
*BAY CITY      CLEAR     79  76  91 S3        30.03S
PALACIOS       PTCLDY    83  75  77 S8        30.03R HX  90
$$

TXZ229>234-239>247-100500-
TEXAS COASTAL BEND AND RIO GRANDE PLAINS

CITY           SKY/WX    TMP DP  RH WIND       PRES   REMARKS
VICTORIA       CLEAR     78  75  90 S6        30.03R
*BEEVILLE      CLEAR     77  73  87 SE7       30.03R
ROCKPORT       PTCLDY    82  75  79 S7        30.02R
*PORT ARANSAS  MOCLDY    82  76  84 S9        30.02R
*PORT LAVACA   CLEAR     76  73  90 S5        30.02S
*INGLESIDE     PTCLDY    82  74  78 S7        30.02S
CORPUS CHRISTI PTCLDY    79  73  82 SE7       30.02R
CORPUS NAS     MOCLDY    81  75  82 S9        30.02R
*ROBSTOWN      PTCLDY    79  74  86 SE6       30.03R
ALICE          PTCLDY    78  73  84 SE9       30.02R
KINGSVILLE NAS MOCLDY    79  75  87 SE9       30.02R
COTULLA        CLEAR     83  68  60 SE10      30.01R
LAREDO         CLEAR     85  63  47 SE10      30.02R
$$

TXZ248>255-100500-
DEEP SOUTH TEXAS

CITY           SKY/WX    TMP DP  RH WIND       PRES   REMARKS
BROWNSVILLE    CLOUDY    74  70  87 S5        30.04S
PORT ISABEL    CLOUDY    77  69  76 S6        30.03R
*SOUTH PADRE     N/A     77  72  83 SW7       30.03F
HARLINGEN      CLOUDY    77  68  73 S12       30.03R
*HEBBRONVILLE  CLOUDY    83  63  51 SE7       30.03R
MCALLEN        CLOUDY    77  71  82 SE13G22   30.03R
*WESLACO       NOT AVBL
FALFURRIAS     PTCLDY    80  73  78 SE7       30.01S
EDINBURG       CLOUDY    83  70  65 S15G21    30.03R
*ZAPATA        CLOUDY    83  63  49 SE9       29.99S
$$

TXZ213>215-236>238-242>244-246-247-251-254-255-100500-
CMAN STATIONS

STATION/POSITION TIME  TEMP    WIND        PRES    WAVE
                       AIR SEA DIR/SP/G            HT/PER
                 (UTC) (F)     (DEG/KT/KT) (MB)    (FT/S)
SABINE PASS      0400   83 87  210/  7/  9 1017.1
SEA RIM ST PARK  0400   83     200/ 11/ 12 1017.6
NORTH JETTY/GLS  0400   84 92  230/ 11/ 13   N/A
EAGLE POINT      0400   83 88  220/ 10/ 12 1017.0
MORGANS POINT    0400   83 89  200/  5/  9 1016.9
MISSION/ARANSAS  0300   83     140/  9     1017.0
PORT O`CONNOR    0400          160/ 12/ 15   N/A
PORT ARANSAS     0400   82 85  150/ 12/ 13 1016.9
MALAQUITE BEACH  0400   82 85  140/ 13/ 16 1015.7
BAFFIN BAY       0400   81 81  150/ 11/ 13 1016.6
PORT ISABEL      0400   76 80  190/  5/  8 1017.2
$$

GMZ080-GMZ150>470-100500-
OFFSHORE BUOY REPORTS

STATION/POSITION TIME  TEMP    WIND        PRES    WAVE
                       AIR SEA DIR/SP/G            HT/PER
                 (UTC) (F)     (DEG/KT/KT) (MB)    (FT/S)
35 NE PT MANSFLD 0400   82 82  170/ 10/ 12 1016.8    3/ 6
$$



USA.gov is the U.S. government's official web portal to all federal, state and local government web resources and services.